TimePDT,TemperatureF,Dew PointF,Humidity,Sea Level PressureIn,VisibilityMPH,Wind Direction,Wind SpeedMPH,Gust SpeedMPH,PrecipitationIn,Events,Conditions,WindDirDegrees,DateUTC
2:53 AM,46.0,41.0,83,30.10,10.0,Calm,Calm,-,N/A,,Clear,0,2012-10-09 09:53:00
3:53 AM,44.1,39.9,85,30.09,10.0,Calm,Calm,-,N/A,,Clear,0,2012-10-09 10:53:00
5:53 AM,42.1,37.9,85,30.10,10.0,Calm,Calm,-,N/A,,Clear,0,2012-10-09 12:53:00
6:53 AM,41.0,37.9,89,30.11,10.0,Calm,Calm,-,N/A,,Clear,0,2012-10-09 13:53:00
7:48 AM,41.0,37.4,87,30.11,10.0,Calm,Calm,-,N/A,,Scattered Clouds,0,2012-10-09 14:48:00
7:53 AM,41.0,37.9,89,30.11,10.0,Calm,Calm,-,N/A,,Mostly Cloudy,0,2012-10-09 14:53:00
8:53 AM,44.1,39.0,82,30.11,10.0,Calm,Calm,-,N/A,,Overcast,0,2012-10-09 15:53:00
9:53 AM,46.0,42.1,86,30.11,10.0,SW,3.5,-,N/A,,Overcast,220,2012-10-09 16:53:00
10:09 AM,46.4,42.8,87,30.10,10.0,Variable,3.5,-,N/A,,Scattered Clouds,0,2012-10-09 17:09:00
10:53 AM,51.1,43.0,74,30.10,10.0,Calm,Calm,-,N/A,,Clear,0,2012-10-09 17:53:00
11:53 AM,55.9,44.1,64,30.08,10.0,SW,4.6,-,N/A,,Clear,220,2012-10-09 18:53:00
12:53 PM,61.0,43.0,52,30.06,10.0,Calm,Calm,-,N/A,,Clear,0,2012-10-09 19:53:00
1:53 PM,64.9,43.0,45,30.02,10.0,Calm,Calm,-,N/A,,Clear,0,2012-10-09 20:53:00
2:53 PM,69.1,39.9,35,30.00,10.0,NNE,6.9,-,N/A,,Clear,30,2012-10-09 21:53:00
3:53 PM,71.1,39.9,32,29.99,10.0,North,6.9,-,N/A,,Clear,10,2012-10-09 22:53:00
4:53 PM,72.0,41.0,33,29.97,10.0,North,4.6,-,N/A,,Clear,10,2012-10-09 23:53:00
5:53 PM,71.1,41.0,34,29.97,10.0,North,4.6,-,N/A,,Clear,360,2012-10-10 00:53:00
6:53 PM,66.9,43.0,42,29.99,10.0,Calm,Calm,-,N/A,,Clear,0,2012-10-10 01:53:00
7:53 PM,61.0,43.0,52,30.00,10.0,NNE,3.5,-,N/A,,Clear,20,2012-10-10 02:53:00
8:53 PM,57.9,43.0,58,30.01,10.0,Calm,Calm,-,N/A,,Clear,0,2012-10-10 03:53:00
9:53 PM,53.1,41.0,64,30.02,10.0,Calm,Calm,-,N/A,,Clear,0,2012-10-10 04:53:00
10:53 PM,52.0,39.9,63,30.03,10.0,Calm,Calm,-,N/A,,Clear,0,2012-10-10 05:53:00
11:53 PM,48.9,41.0,74,30.03,10.0,Calm,Calm,-,N/A,,Clear,0,2012-10-10 06:53:00